contact:dominique.lefevre@mio.osupytheas.fr, maurice.libes@osupytheas.fr, didier.mallarino@osupytheas.fr
Project:EMSO http://www.emso-fr.org/EMSO-France
Depth: 2436.0 m
Title:EMSO Ligure Ouest : Data MII capteur MICROCAT
DateTime_Computer,Latitude,Longitude,Temperature,Conductivity,Pressure,DateTime_Instrument
DateTime_Computer,Latitude,Longitude,degC,S m-1,dbar,DateTime_Instrument
2021-08-09T00:01:51Z,42.805,6.029,13.2993,4.59999,2470.46,2021-8-09T02:03:09Z
2021-08-09T00:04:54Z,42.805,6.029,13.2991,4.59999,2470.46,2021-8-09T02:06:12Z
2021-08-09T00:07:57Z,42.805,6.029,13.2989,4.60000,2470.46,2021-8-09T02:09:15Z
2021-08-09T00:11:00Z,42.805,6.029,13.2988,4.60002,2470.437,2021-8-09T02:12:18Z
2021-08-09T00:14:03Z,42.805,6.029,13.2986,4.59999,2470.46,2021-8-09T02:15:21Z
2021-08-09T00:17:07Z,42.805,6.029,13.2986,4.60001,2470.46,2021-8-09T02:18:24Z
2021-08-09T00:20:10Z,42.805,6.029,13.2990,4.59999,2470.437,2021-8-09T02:21:28Z
2021-08-09T00:23:13Z,42.805,6.029,13.2987,4.59998,2470.437,2021-8-09T02:24:31Z
2021-08-09T00:26:16Z,42.805,6.029,13.2990,4.59999,2470.474,2021-8-09T02:27:34Z
2021-08-09T00:29:19Z,42.805,6.029,13.2986,4.59999,2470.46,2021-8-09T02:30:37Z
2021-08-09T00:32:22Z,42.805,6.029,13.2990,4.59999,2470.413,2021-8-09T02:33:40Z
2021-08-09T00:35:25Z,42.805,6.029,13.2991,4.60000,2470.46,2021-8-09T02:36:43Z
2021-08-09T00:38:28Z,42.805,6.029,13.2991,4.59999,2470.413,2021-8-09T02:39:46Z
2021-08-09T00:41:32Z,42.805,6.029,13.2990,4.59999,2470.474,2021-8-09T02:42:49Z
2021-08-09T00:44:35Z,42.805,6.029,13.2986,4.60000,2470.45,2021-8-09T02:45:53Z
2021-08-09T00:47:38Z,42.805,6.029,13.2989,4.60000,2470.437,2021-8-09T02:48:56Z
2021-08-09T00:50:41Z,42.805,6.029,13.2985,4.60000,2470.413,2021-8-09T02:51:59Z
2021-08-09T00:53:44Z,42.805,6.029,13.2986,4.59999,2470.45,2021-8-09T02:55:02Z
2021-08-09T00:56:47Z,42.805,6.029,13.2986,4.59999,2470.413,2021-8-09T02:58:05Z
2021-08-09T00:59:50Z,42.805,6.029,13.2990,4.60000,2470.437,2021-8-09T03:01:08Z
2021-08-09T01:02:53Z,42.805,6.029,13.2990,4.60000,2470.413,2021-8-09T03:04:11Z
2021-08-09T01:05:56Z,42.805,6.029,13.2986,4.60000,2470.45,2021-8-09T03:07:14Z
2021-08-09T01:09:00Z,42.805,6.029,13.2987,4.60000,2470.45,2021-8-09T03:10:18Z
2021-08-09T01:12:03Z,42.805,6.029,13.2991,4.59999,2470.39,2021-8-09T03:13:21Z
2021-08-09T01:15:06Z,42.805,6.029,13.2987,4.60001,2470.413,2021-8-09T03:16:24Z
2021-08-09T01:18:09Z,42.805,6.029,13.2987,4.59999,2470.413,2021-8-09T03:19:27Z
2021-08-09T01:21:12Z,42.805,6.029,13.2987,4.60000,2470.437,2021-8-09T03:22:30Z
2021-08-09T01:24:15Z,42.805,6.029,13.2985,4.59999,2470.404,2021-8-09T03:25:33Z
2021-08-09T01:27:18Z,42.805,6.029,13.2988,4.60000,2470.413,2021-8-09T03:28:36Z
2021-08-09T01:30:21Z,42.805,6.029,13.2988,4.59999,2470.353,2021-8-09T03:31:39Z
2021-08-09T01:33:25Z,42.805,6.029,13.2987,4.59999,2470.39,2021-8-09T03:34:43Z
2021-08-09T01:36:28Z,42.805,6.029,13.2993,4.59999,2470.39,2021-8-09T03:37:46Z
2021-08-09T01:39:31Z,42.805,6.029,13.2986,4.60004,2470.427,2021-8-09T03:40:49Z
2021-08-09T01:42:34Z,42.805,6.029,13.2986,4.60001,2470.404,2021-8-09T03:43:52Z
2021-08-09T01:45:37Z,42.805,6.029,13.2989,4.60001,2470.366,2021-8-09T03:46:55Z
2021-08-09T01:48:40Z,42.805,6.029,13.2990,4.60000,2470.39,2021-8-09T03:49:58Z
2021-08-09T01:51:43Z,42.805,6.029,13.2988,4.59999,2470.404,2021-8-09T03:53:01Z
2021-08-09T01:54:46Z,42.805,6.029,13.2990,4.60001,2470.39,2021-8-09T03:56:04Z
2021-08-09T01:57:49Z,42.805,6.029,13.2987,4.60002,2470.39,2021-8-09T03:59:07Z
2021-08-09T02:00:53Z,42.805,6.029,13.2985,4.59999,2470.413,2021-8-09T04:02:11Z
2021-08-09T02:03:56Z,42.805,6.029,13.2985,4.59999,2470.404,2021-8-09T04:05:14Z
2021-08-09T02:06:59Z,42.805,6.029,13.2986,4.59999,2470.404,2021-8-09T04:08:17Z
2021-08-09T02:10:02Z,42.805,6.029,13.2992,4.59999,2470.366,2021-8-09T04:11:20Z
2021-08-09T02:13:05Z,42.805,6.029,13.2991,4.60000,2470.366,2021-8-09T04:14:23Z
2021-08-09T02:16:08Z,42.805,6.029,13.2990,4.60000,2470.39,2021-8-09T04:17:26Z
2021-08-09T02:19:11Z,42.805,6.029,13.2984,4.60000,2470.404,2021-8-09T04:20:29Z
2021-08-09T02:22:14Z,42.805,6.029,13.2989,4.59999,2470.39,2021-8-09T04:23:32Z
2021-08-09T02:25:18Z,42.805,6.029,13.2992,4.60001,2470.39,2021-8-09T04:26:36Z
2021-08-09T02:28:21Z,42.805,6.029,13.2989,4.60000,2470.39,2021-8-09T04:29:39Z
2021-08-09T02:31:24Z,42.805,6.029,13.2987,4.60000,2470.437,2021-8-09T04:32:42Z
2021-08-09T02:34:27Z,42.805,6.029,13.2988,4.60000,2470.39,2021-8-09T04:35:45Z
2021-08-09T02:37:30Z,42.805,6.029,13.2988,4.60003,2470.38,2021-8-09T04:38:48Z
2021-08-09T02:40:33Z,42.805,6.029,13.2987,4.59999,2470.39,2021-8-09T04:41:51Z
2021-08-09T02:43:36Z,42.805,6.029,13.2991,4.59999,2470.39,2021-8-09T04:44:54Z
2021-08-09T02:46:39Z,42.805,6.029,13.2988,4.60000,2470.427,2021-8-09T04:47:57Z
2021-08-09T02:49:42Z,42.805,6.029,13.2987,4.59999,2470.427,2021-8-09T04:51:00Z
2021-08-09T02:52:46Z,42.805,6.029,13.2988,4.59999,2470.366,2021-8-09T04:54:04Z
2021-08-09T02:55:49Z,42.805,6.029,13.2987,4.59999,2470.39,2021-8-09T04:57:07Z
2021-08-09T02:58:52Z,42.805,6.029,13.2990,4.59999,2470.39,2021-8-09T05:00:10Z
2021-08-09T03:01:55Z,42.805,6.029,13.2990,4.60002,2470.38,2021-8-09T05:03:13Z
2021-08-09T03:04:58Z,42.805,6.029,13.2986,4.60000,2470.413,2021-8-09T05:06:16Z
2021-08-09T03:08:01Z,42.805,6.029,13.2989,4.60000,2470.366,2021-8-09T05:09:19Z
2021-08-09T03:11:04Z,42.805,6.029,13.2986,4.60000,2470.399,2021-8-09T05:12:22Z
2021-08-09T03:14:07Z,42.805,6.029,13.2990,4.60002,2470.366,2021-8-09T05:15:25Z
2021-08-09T03:17:11Z,42.805,6.029,13.2989,4.59999,2470.413,2021-8-09T05:18:29Z
2021-08-09T03:20:14Z,42.805,6.029,13.2986,4.60004,2470.39,2021-8-09T05:21:32Z
2021-08-09T03:23:17Z,42.805,6.029,13.2990,4.60000,2470.39,2021-8-09T05:24:35Z
2021-08-09T03:26:20Z,42.805,6.029,13.2989,4.60001,2470.404,2021-8-09T05:27:38Z
2021-08-09T03:29:23Z,42.805,6.029,13.2992,4.60002,2470.404,2021-8-09T05:30:41Z
2021-08-09T03:32:26Z,42.805,6.029,13.2990,4.60000,2470.427,2021-8-09T05:33:44Z
2021-08-09T03:35:29Z,42.805,6.029,13.2988,4.60001,2470.39,2021-8-09T05:36:47Z
2021-08-09T03:38:32Z,42.805,6.029,13.2990,4.60001,2470.39,2021-8-09T05:39:50Z
2021-08-09T03:41:36Z,42.805,6.029,13.2993,4.60002,2470.39,2021-8-09T05:42:53Z
2021-08-09T03:44:39Z,42.805,6.029,13.2990,4.60001,2470.39,2021-8-09T05:45:57Z
2021-08-09T03:47:42Z,42.805,6.029,13.2988,4.60000,2470.39,2021-8-09T05:49:00Z
2021-08-09T03:50:45Z,42.805,6.029,13.2990,4.60000,2470.38,2021-8-09T05:52:03Z
2021-08-09T03:53:48Z,42.805,6.029,13.2990,4.60002,2470.427,2021-8-09T05:55:06Z
2021-08-09T03:56:51Z,42.805,6.029,13.2991,4.60003,2470.39,2021-8-09T05:58:09Z
2021-08-09T03:59:54Z,42.805,6.029,13.2989,4.60001,2470.413,2021-8-09T06:01:12Z
2021-08-09T04:02:57Z,42.805,6.029,13.2986,4.60002,2470.413,2021-8-09T06:04:15Z
2021-08-09T04:06:00Z,42.805,6.029,13.2989,4.60001,2470.413,2021-8-09T06:07:18Z
2021-08-09T04:09:04Z,42.805,6.029,13.2986,4.60001,2470.366,2021-8-09T06:10:22Z
2021-08-09T04:12:07Z,42.805,6.029,13.2991,4.60000,2470.413,2021-8-09T06:13:25Z
2021-08-09T04:15:10Z,42.805,6.029,13.2989,4.60001,2470.413,2021-8-09T06:16:28Z
2021-08-09T04:18:13Z,42.805,6.029,13.2987,4.60001,2470.437,2021-8-09T06:19:31Z
2021-08-09T04:21:16Z,42.805,6.029,13.2986,4.60003,2470.427,2021-8-09T06:22:34Z
2021-08-09T04:24:19Z,42.805,6.029,13.2989,4.60001,2470.437,2021-8-09T06:25:37Z
2021-08-09T04:27:22Z,42.805,6.029,13.2991,4.60002,2470.474,2021-8-09T06:28:40Z
2021-08-09T04:30:25Z,42.805,6.029,13.2990,4.59999,2470.45,2021-8-09T06:31:43Z
2021-08-09T04:33:29Z,42.805,6.029,13.2990,4.60003,2470.437,2021-8-09T06:34:46Z
2021-08-09T04:36:32Z,42.805,6.029,13.2995,4.60001,2470.437,2021-8-09T06:37:50Z
2021-08-09T04:39:35Z,42.805,6.029,13.2988,4.59999,2470.413,2021-8-09T06:40:53Z
2021-08-09T04:42:38Z,42.805,6.029,13.2990,4.60000,2470.46,2021-8-09T06:43:56Z
2021-08-09T04:45:41Z,42.805,6.029,13.2991,4.60000,2470.437,2021-8-09T06:46:59Z
2021-08-09T04:48:44Z,42.805,6.029,13.2988,4.60002,2470.483,2021-8-09T06:50:02Z
2021-08-09T04:51:47Z,42.805,6.029,13.2987,4.59999,2470.45,2021-8-09T06:53:05Z
2021-08-09T04:54:50Z,42.805,6.029,13.2984,4.60000,2470.46,2021-8-09T06:56:08Z
2021-08-09T04:57:53Z,42.805,6.029,13.2984,4.59998,2470.427,2021-8-09T06:59:11Z
2021-08-09T05:00:57Z,42.805,6.029,13.2985,4.59999,2470.46,2021-8-09T07:02:15Z
2021-08-09T05:04:00Z,42.805,6.029,13.2990,4.60000,2470.45,2021-8-09T07:05:18Z
2021-08-09T05:07:03Z,42.805,6.029,13.2988,4.59999,2470.474,2021-8-09T07:08:21Z
2021-08-09T05:10:06Z,42.805,6.029,13.2991,4.60002,2470.46,2021-8-09T07:11:24Z
2021-08-09T05:13:09Z,42.805,6.029,13.2987,4.59999,2470.46,2021-8-09T07:14:27Z
2021-08-09T05:16:12Z,42.805,6.029,13.2987,4.60000,2470.46,2021-8-09T07:17:30Z
2021-08-09T05:19:15Z,42.805,6.029,13.2992,4.60001,2470.437,2021-8-09T07:20:33Z
2021-08-09T05:22:18Z,42.805,6.029,13.2987,4.60001,2470.46,2021-8-09T07:23:36Z
2021-08-09T05:25:22Z,42.805,6.029,13.2988,4.60001,2470.437,2021-8-09T07:26:40Z
2021-08-09T05:28:25Z,42.805,6.029,13.2989,4.60000,2470.497,2021-8-09T07:29:43Z
2021-08-09T05:31:28Z,42.805,6.029,13.2989,4.59999,2470.483,2021-8-09T07:32:46Z
2021-08-09T05:34:31Z,42.805,6.029,13.2988,4.60001,2470.46,2021-8-09T07:35:49Z
2021-08-09T05:37:34Z,42.805,6.029,13.2986,4.60001,2470.483,2021-8-09T07:38:52Z
2021-08-09T05:40:37Z,42.805,6.029,13.2986,4.59999,2470.507,2021-8-09T07:41:55Z
2021-08-09T05:43:40Z,42.805,6.029,13.2986,4.59999,2470.46,2021-8-09T07:44:58Z
2021-08-09T05:46:43Z,42.805,6.029,13.2989,4.60000,2470.507,2021-8-09T07:48:01Z
2021-08-09T05:49:47Z,42.805,6.029,13.2986,4.59999,2470.507,2021-8-09T07:51:04Z
2021-08-09T05:52:50Z,42.805,6.029,13.2987,4.60001,2470.483,2021-8-09T07:54:08Z
2021-08-09T05:55:53Z,42.805,6.029,13.2990,4.59999,2470.507,2021-8-09T07:57:11Z
2021-08-09T05:58:56Z,42.805,6.029,13.2987,4.60000,2470.507,2021-8-09T08:00:14Z
2021-08-09T06:01:59Z,42.805,6.029,13.2988,4.60003,2470.483,2021-8-09T08:03:17Z
2021-08-09T06:05:02Z,42.805,6.029,13.2988,4.59999,2470.483,2021-8-09T08:06:20Z
2021-08-09T06:08:05Z,42.805,6.029,13.2989,4.59999,2470.497,2021-8-09T08:09:23Z
2021-08-09T06:11:08Z,42.805,6.029,13.2987,4.59999,2470.483,2021-8-09T08:12:26Z
2021-08-09T06:14:11Z,42.805,6.029,13.2990,4.60001,2470.507,2021-8-09T08:15:29Z
2021-08-09T06:17:15Z,42.805,6.029,13.2988,4.59999,2470.483,2021-8-09T08:18:33Z
2021-08-09T06:20:18Z,42.805,6.029,13.2984,4.60001,2470.46,2021-8-09T08:21:36Z
2021-08-09T06:23:21Z,42.805,6.029,13.2990,4.60002,2470.544,2021-8-09T08:24:39Z
2021-08-09T06:26:24Z,42.805,6.029,13.2991,4.60000,2470.507,2021-8-09T08:27:42Z
2021-08-09T06:29:27Z,42.805,6.029,13.2992,4.59999,2470.483,2021-8-09T08:30:45Z
2021-08-09T06:32:30Z,42.805,6.029,13.2986,4.60000,2470.53,2021-8-09T08:33:48Z
2021-08-09T06:35:33Z,42.805,6.029,13.2989,4.59998,2470.53,2021-8-09T08:36:51Z
2021-08-09T06:38:36Z,42.805,6.029,13.2989,4.59999,2470.516,2021-8-09T08:39:54Z
2021-08-09T06:41:40Z,42.805,6.029,13.2984,4.59999,2470.52,2021-8-09T08:42:57Z
2021-08-09T06:44:43Z,42.805,6.029,13.2986,4.60000,2470.52,2021-8-09T08:46:01Z
2021-08-09T06:47:46Z,42.805,6.029,13.2989,4.60000,2470.553,2021-8-09T08:49:04Z
2021-08-09T06:50:49Z,42.805,6.029,13.2990,4.60002,2470.544,2021-8-09T08:52:07Z
2021-08-09T06:53:52Z,42.805,6.029,13.2987,4.60001,2470.53,2021-8-09T08:55:10Z
2021-08-09T06:56:55Z,42.805,6.029,13.2988,4.60000,2470.507,2021-8-09T08:58:13Z
2021-08-09T06:59:58Z,42.805,6.029,13.2989,4.59999,2470.53,2021-8-09T09:01:16Z
2021-08-09T07:03:01Z,42.805,6.029,13.2982,4.59999,2470.53,2021-8-09T09:04:19Z
2021-08-09T07:06:04Z,42.805,6.029,13.2991,4.59999,2470.507,2021-8-09T09:07:22Z
2021-08-09T07:09:08Z,42.805,6.029,13.2986,4.60000,2470.567,2021-8-09T09:10:26Z
2021-08-09T07:12:11Z,42.805,6.029,13.2989,4.60004,2470.52,2021-8-09T09:13:29Z
2021-08-09T07:15:14Z,42.805,6.029,13.2987,4.60003,2470.53,2021-8-09T09:16:32Z
2021-08-09T07:18:17Z,42.805,6.029,13.2988,4.60001,2470.53,2021-8-09T09:19:35Z
2021-08-09T07:21:20Z,42.805,6.029,13.2990,4.60005,2470.553,2021-8-09T09:22:38Z
2021-08-09T07:24:23Z,42.805,6.029,13.2988,4.60001,2470.516,2021-8-09T09:25:41Z
2021-08-09T07:27:26Z,42.805,6.029,13.2989,4.60003,2470.553,2021-8-09T09:28:44Z
2021-08-09T07:30:29Z,42.805,6.029,13.2986,4.60002,2470.553,2021-8-09T09:31:47Z
2021-08-09T07:33:33Z,42.805,6.029,13.2991,4.60001,2470.52,2021-8-09T09:34:50Z
2021-08-09T07:36:36Z,42.805,6.029,13.2991,4.60002,2470.53,2021-8-09T09:37:54Z
2021-08-09T07:39:39Z,42.805,6.029,13.2992,4.60001,2470.52,2021-8-09T09:40:57Z
2021-08-09T07:42:42Z,42.805,6.029,13.2991,4.60003,2470.52,2021-8-09T09:44:00Z
2021-08-09T07:45:45Z,42.805,6.029,13.2991,4.60002,2470.53,2021-8-09T09:47:03Z
2021-08-09T07:48:48Z,42.805,6.029,13.2988,4.60003,2470.483,2021-8-09T09:50:06Z
2021-08-09T07:51:51Z,42.805,6.029,13.2990,4.60001,2470.507,2021-8-09T09:53:09Z
2021-08-09T07:54:54Z,42.805,6.029,13.2991,4.60003,2470.544,2021-8-09T09:56:12Z
2021-08-09T07:57:57Z,42.805,6.029,13.2989,4.60000,2470.507,2021-8-09T09:59:15Z
2021-08-09T08:01:01Z,42.805,6.029,13.2984,4.60000,2470.544,2021-8-09T10:02:19Z
2021-08-09T08:04:04Z,42.805,6.029,13.2991,4.60007,2470.53,2021-8-09T10:05:22Z
2021-08-09T08:07:07Z,42.805,6.029,13.2990,4.60001,2470.544,2021-8-09T10:08:25Z
2021-08-09T08:10:10Z,42.805,6.029,13.2988,4.60000,2470.553,2021-8-09T10:11:28Z
2021-08-09T08:13:13Z,42.805,6.029,13.2985,4.60003,2470.53,2021-8-09T10:14:31Z
2021-08-09T08:16:16Z,42.805,6.029,13.2990,4.60001,2470.52,2021-8-09T10:17:34Z
2021-08-09T08:19:19Z,42.805,6.029,13.2991,4.60001,2470.483,2021-8-09T10:20:37Z
2021-08-09T08:22:22Z,42.805,6.029,13.2987,4.60000,2470.507,2021-8-09T10:23:40Z
2021-08-09T08:25:26Z,42.805,6.029,13.2986,4.60002,2470.507,2021-8-09T10:26:44Z
2021-08-09T08:28:29Z,42.805,6.029,13.2993,4.59999,2470.507,2021-8-09T10:29:47Z
2021-08-09T08:31:32Z,42.805,6.029,13.2988,4.59999,2470.497,2021-8-09T10:32:50Z
2021-08-09T08:34:35Z,42.805,6.029,13.2990,4.60003,2470.52,2021-8-09T10:35:53Z
2021-08-09T08:37:38Z,42.805,6.029,13.2989,4.60000,2470.483,2021-8-09T10:38:56Z
2021-08-09T08:40:41Z,42.805,6.029,13.2986,4.60001,2470.507,2021-8-09T10:41:59Z
2021-08-09T08:43:44Z,42.805,6.029,13.2990,4.60001,2470.507,2021-8-09T10:45:02Z
2021-08-09T08:46:47Z,42.805,6.029,13.2985,4.60000,2470.52,2021-8-09T10:48:05Z
2021-08-09T08:49:51Z,42.805,6.029,13.2986,4.59999,2470.53,2021-8-09T10:51:09Z
2021-08-09T08:52:54Z,42.805,6.029,13.2990,4.59999,2470.507,2021-8-09T10:54:12Z
2021-08-09T08:55:57Z,42.805,6.029,13.2990,4.60003,2470.483,2021-8-09T10:57:15Z
2021-08-09T08:59:00Z,42.805,6.029,13.2991,4.60000,2470.507,2021-8-09T11:00:18Z
2021-08-09T09:02:03Z,42.805,6.029,13.2987,4.60001,2470.53,2021-8-09T11:03:21Z
2021-08-09T09:05:06Z,42.805,6.029,13.2986,4.60000,2470.483,2021-8-09T11:06:24Z
2021-08-09T09:08:09Z,42.805,6.029,13.2990,4.60002,2470.507,2021-8-09T11:09:27Z
2021-08-09T09:11:12Z,42.805,6.029,13.2989,4.60000,2470.483,2021-8-09T11:12:30Z
2021-08-09T09:14:16Z,42.805,6.029,13.2986,4.60000,2470.507,2021-8-09T11:15:34Z
2021-08-09T09:17:19Z,42.805,6.029,13.2990,4.60001,2470.46,2021-8-09T11:18:37Z
2021-08-09T09:20:22Z,42.805,6.029,13.2992,4.59999,2470.474,2021-8-09T11:21:40Z
2021-08-09T09:23:25Z,42.805,6.029,13.2986,4.60000,2470.46,2021-8-09T11:24:43Z
2021-08-09T09:26:28Z,42.805,6.029,13.2990,4.60001,2470.46,2021-8-09T11:27:46Z
2021-08-09T09:29:31Z,42.805,6.029,13.2987,4.60000,2470.497,2021-8-09T11:30:49Z
2021-08-09T09:32:34Z,42.805,6.029,13.2988,4.60003,2470.507,2021-8-09T11:33:52Z
2021-08-09T09:35:37Z,42.805,6.029,13.2986,4.60000,2470.497,2021-8-09T11:36:55Z
2021-08-09T09:38:41Z,42.805,6.029,13.2990,4.60001,2470.497,2021-8-09T11:39:59Z
2021-08-09T09:41:44Z,42.805,6.029,13.2988,4.60002,2470.507,2021-8-09T11:43:02Z
2021-08-09T09:44:47Z,42.805,6.029,13.2990,4.59999,2470.483,2021-8-09T11:46:05Z
2021-08-09T09:47:50Z,42.805,6.029,13.2986,4.59999,2470.497,2021-8-09T11:49:08Z
2021-08-09T09:50:53Z,42.805,6.029,13.2989,4.60001,2470.474,2021-8-09T11:52:11Z
2021-08-09T09:53:56Z,42.805,6.029,13.2990,4.60001,2470.427,2021-8-09T11:55:14Z
2021-08-09T09:56:59Z,42.805,6.029,13.2986,4.60000,2470.483,2021-8-09T11:58:17Z
2021-08-09T10:00:02Z,42.805,6.029,13.2990,4.59999,2470.437,2021-8-09T12:01:20Z
2021-08-09T10:03:05Z,42.805,6.029,13.2990,4.60001,2470.45,2021-8-09T12:04:23Z
2021-08-09T10:06:09Z,42.805,6.029,13.2990,4.60000,2470.483,2021-8-09T12:07:27Z
2021-08-09T10:09:12Z,42.805,6.029,13.2986,4.59999,2470.474,2021-8-09T12:10:30Z
2021-08-09T10:12:15Z,42.805,6.029,13.2986,4.59999,2470.46,2021-8-09T12:13:33Z
2021-08-09T10:15:18Z,42.805,6.029,13.2990,4.59999,2470.474,2021-8-09T12:16:36Z
2021-08-09T10:18:21Z,42.805,6.029,13.2988,4.59999,2470.474,2021-8-09T12:19:39Z
2021-08-09T10:21:24Z,42.805,6.029,13.2990,4.59999,2470.474,2021-8-09T12:22:42Z
2021-08-09T10:24:27Z,42.805,6.029,13.2988,4.60004,2470.437,2021-8-09T12:25:45Z
2021-08-09T10:27:30Z,42.805,6.029,13.2986,4.60003,2470.46,2021-8-09T12:28:48Z
2021-08-09T10:30:34Z,42.805,6.029,13.2989,4.60001,2470.437,2021-8-09T12:31:52Z
2021-08-09T10:33:37Z,42.805,6.029,13.2986,4.59999,2470.45,2021-8-09T12:34:55Z
2021-08-09T10:36:40Z,42.805,6.029,13.2986,4.60004,2470.474,2021-8-09T12:37:58Z
2021-08-09T10:39:43Z,42.805,6.029,13.2986,4.60000,2470.437,2021-8-09T12:41:01Z
2021-08-09T10:42:46Z,42.805,6.029,13.2984,4.60003,2470.437,2021-8-09T12:44:04Z
2021-08-09T10:45:49Z,42.805,6.029,13.2990,4.60002,2470.404,2021-8-09T12:47:07Z
2021-08-09T10:48:52Z,42.805,6.029,13.2989,4.59999,2470.45,2021-8-09T12:50:10Z
2021-08-09T10:51:55Z,42.805,6.029,13.2990,4.60009,2470.437,2021-8-09T12:53:13Z
2021-08-09T10:54:59Z,42.805,6.029,13.2989,4.60002,2470.427,2021-8-09T12:56:17Z
2021-08-09T10:58:02Z,42.805,6.029,13.2990,4.60003,2470.413,2021-8-09T12:59:20Z
2021-08-09T11:01:05Z,42.805,6.029,13.2987,4.59999,2470.437,2021-8-09T13:02:23Z
2021-08-09T11:04:08Z,42.805,6.029,13.2991,4.59999,2470.437,2021-8-09T13:05:26Z
2021-08-09T11:07:11Z,42.805,6.029,13.2987,4.59999,2470.437,2021-8-09T13:08:29Z
2021-08-09T11:10:14Z,42.805,6.029,13.2987,4.60004,2470.413,2021-8-09T13:11:32Z
2021-08-09T11:13:17Z,42.805,6.029,13.2987,4.59999,2470.45,2021-8-09T13:14:35Z
2021-08-09T11:16:20Z,42.805,6.029,13.2989,4.59999,2470.427,2021-8-09T13:17:38Z
2021-08-09T11:19:24Z,42.805,6.029,13.2990,4.59999,2470.39,2021-8-09T13:20:42Z
2021-08-09T11:22:27Z,42.805,6.029,13.2990,4.60000,2470.404,2021-8-09T13:23:45Z
2021-08-09T11:25:30Z,42.805,6.029,13.2985,4.59999,2470.39,2021-8-09T13:26:48Z
2021-08-09T11:28:33Z,42.805,6.029,13.2988,4.59999,2470.413,2021-8-09T13:29:51Z
2021-08-09T11:31:36Z,42.805,6.029,13.2989,4.60000,2470.366,2021-8-09T13:32:54Z
2021-08-09T11:34:39Z,42.805,6.029,13.2988,4.60000,2470.427,2021-8-09T13:35:57Z
2021-08-09T11:37:42Z,42.805,6.029,13.2988,4.60005,2470.413,2021-8-09T13:39:00Z
2021-08-09T11:40:45Z,42.805,6.029,13.2987,4.60003,2470.404,2021-8-09T13:42:03Z
2021-08-09T11:43:49Z,42.805,6.029,13.2987,4.59999,2470.413,2021-8-09T13:45:07Z
2021-08-09T11:46:52Z,42.805,6.029,13.2986,4.60003,2470.413,2021-8-09T13:48:10Z
2021-08-09T11:49:55Z,42.805,6.029,13.2986,4.60001,2470.404,2021-8-09T13:51:13Z
2021-08-09T11:52:58Z,42.805,6.029,13.2986,4.60001,2470.366,2021-8-09T13:54:16Z
2021-08-09T11:56:01Z,42.805,6.029,13.2988,4.60004,2470.427,2021-8-09T13:57:19Z
2021-08-09T11:59:04Z,42.805,6.029,13.2983,4.60001,2470.39,2021-8-09T14:00:22Z
2021-08-09T12:02:07Z,42.805,6.029,13.2988,4.60001,2470.366,2021-8-09T14:03:25Z
2021-08-09T12:05:10Z,42.805,6.029,13.2987,4.60001,2470.39,2021-8-09T14:06:28Z
2021-08-09T12:08:14Z,42.805,6.029,13.2988,4.60001,2470.39,2021-8-09T14:09:32Z
2021-08-09T12:11:17Z,42.805,6.029,13.2988,4.60000,2470.366,2021-8-09T14:12:35Z
2021-08-09T12:14:20Z,42.805,6.029,13.2987,4.60000,2470.357,2021-8-09T14:15:38Z
2021-08-09T12:17:23Z,42.805,6.029,13.2991,4.60000,2470.366,2021-8-09T14:18:41Z
2021-08-09T12:20:26Z,42.805,6.029,13.2984,4.60006,2470.38,2021-8-09T14:21:44Z
2021-08-09T12:23:29Z,42.805,6.029,13.2990,4.60000,2470.39,2021-8-09T14:24:47Z
2021-08-09T12:26:32Z,42.805,6.029,13.2987,4.60001,2470.343,2021-8-09T14:27:50Z
2021-08-09T12:29:35Z,42.805,6.029,13.2985,4.60001,2470.39,2021-8-09T14:30:53Z
2021-08-09T12:32:39Z,42.805,6.029,13.2986,4.60001,2470.38,2021-8-09T14:33:57Z
2021-08-09T12:35:42Z,42.805,6.029,13.2987,4.60001,2470.357,2021-8-09T14:37:00Z
2021-08-09T12:38:45Z,42.805,6.029,13.2991,4.60002,2470.404,2021-8-09T14:40:03Z
2021-08-09T12:41:48Z,42.805,6.029,13.2988,4.60001,2470.343,2021-8-09T14:43:06Z
2021-08-09T12:44:51Z,42.805,6.029,13.2990,4.60002,2470.39,2021-8-09T14:46:09Z
2021-08-09T12:47:54Z,42.805,6.029,13.2986,4.60000,2470.366,2021-8-09T14:49:12Z
2021-08-09T12:50:57Z,42.805,6.029,13.2991,4.60003,2470.357,2021-8-09T14:52:15Z
2021-08-09T12:54:00Z,42.805,6.029,13.2990,4.60004,2470.343,2021-8-09T14:55:18Z
2021-08-09T12:57:04Z,42.805,6.029,13.2990,4.60003,2470.366,2021-8-09T14:58:22Z
2021-08-09T13:00:07Z,42.805,6.029,13.2987,4.60001,2470.39,2021-8-09T15:01:25Z
2021-08-09T13:03:10Z,42.805,6.029,13.2986,4.60001,2470.357,2021-8-09T15:04:28Z
2021-08-09T13:06:13Z,42.805,6.029,13.2988,4.60001,2470.39,2021-8-09T15:07:31Z
2021-08-09T13:09:16Z,42.805,6.029,13.2984,4.60005,2470.366,2021-8-09T15:10:34Z
2021-08-09T13:12:19Z,42.805,6.029,13.2988,4.60001,2470.366,2021-8-09T15:13:37Z
2021-08-09T13:15:22Z,42.805,6.029,13.2989,4.60004,2470.38,2021-8-09T15:16:40Z
2021-08-09T13:18:25Z,42.805,6.029,13.2992,4.60002,2470.366,2021-8-09T15:19:43Z
2021-08-09T13:21:29Z,42.805,6.029,13.2984,4.60003,2470.343,2021-8-09T15:22:47Z
2021-08-09T13:24:32Z,42.805,6.029,13.2988,4.60003,2470.334,2021-8-09T15:25:50Z
2021-08-09T13:27:35Z,42.805,6.029,13.2991,4.60001,2470.32,2021-8-09T15:28:53Z
2021-08-09T13:30:38Z,42.805,6.029,13.2985,4.60000,2470.357,2021-8-09T15:31:56Z
2021-08-09T13:33:41Z,42.805,6.029,13.2989,4.60000,2470.38,2021-8-09T15:34:59Z
2021-08-09T13:36:44Z,42.805,6.029,13.2987,4.60001,2470.32,2021-8-09T15:38:02Z
2021-08-09T13:39:47Z,42.805,6.029,13.2986,4.60002,2470.334,2021-8-09T15:41:05Z
2021-08-09T13:42:50Z,42.805,6.029,13.2990,4.60003,2470.366,2021-8-09T15:44:08Z
2021-08-09T13:45:53Z,42.805,6.029,13.2987,4.60001,2470.343,2021-8-09T15:47:12Z
2021-08-09T13:48:57Z,42.805,6.029,13.2990,4.60001,2470.32,2021-8-09T15:50:15Z
2021-08-09T13:52:00Z,42.805,6.029,13.2987,4.60001,2470.32,2021-8-09T15:53:18Z
2021-08-09T13:55:03Z,42.805,6.029,13.2983,4.60001,2470.306,2021-8-09T15:56:21Z
2021-08-09T13:58:06Z,42.805,6.029,13.2990,4.59999,2470.366,2021-8-09T15:59:24Z
2021-08-09T14:01:09Z,42.805,6.029,13.2990,4.60000,2470.343,2021-8-09T16:02:27Z
2021-08-09T14:04:12Z,42.805,6.029,13.2988,4.60000,2470.343,2021-8-09T16:05:30Z
2021-08-09T14:07:15Z,42.805,6.029,13.2989,4.60003,2470.343,2021-8-09T16:08:33Z
2021-08-09T14:10:18Z,42.805,6.029,13.2990,4.60003,2470.343,2021-8-09T16:11:36Z
2021-08-09T14:13:22Z,42.805,6.029,13.2988,4.60002,2470.32,2021-8-09T16:14:40Z
2021-08-09T14:16:25Z,42.805,6.029,13.2987,4.60003,2470.334,2021-8-09T16:17:43Z
2021-08-09T14:19:28Z,42.805,6.029,13.2988,4.60001,2470.357,2021-8-09T16:20:46Z
2021-08-09T14:22:31Z,42.805,6.029,13.2989,4.60001,2470.357,2021-8-09T16:23:49Z
2021-08-09T14:25:34Z,42.805,6.029,13.2986,4.60001,2470.343,2021-8-09T16:26:52Z
2021-08-09T14:28:37Z,42.805,6.029,13.2990,4.60000,2470.343,2021-8-09T16:29:55Z
2021-08-09T14:31:40Z,42.805,6.029,13.2991,4.60001,2470.353,2021-8-09T16:32:58Z
2021-08-09T14:34:43Z,42.805,6.029,13.2991,4.60002,2470.38,2021-8-09T16:36:02Z
2021-08-09T14:37:47Z,42.805,6.029,13.2992,4.60001,2470.32,2021-8-09T16:39:05Z
2021-08-09T14:40:50Z,42.805,6.029,13.2992,4.60001,2470.404,2021-8-09T16:42:08Z
2021-08-09T14:43:53Z,42.805,6.029,13.2987,4.60003,2470.366,2021-8-09T16:45:11Z
2021-08-09T14:46:56Z,42.805,6.029,13.2989,4.60003,2470.38,2021-8-09T16:48:14Z
2021-08-09T14:49:59Z,42.805,6.029,13.2991,4.60001,2470.343,2021-8-09T16:51:17Z
2021-08-09T14:53:02Z,42.805,6.029,13.2993,4.60003,2470.39,2021-8-09T16:54:20Z
2021-08-09T14:56:05Z,42.805,6.029,13.2989,4.60004,2470.343,2021-8-09T16:57:23Z
2021-08-09T14:59:08Z,42.805,6.029,13.2992,4.60001,2470.376,2021-8-09T17:00:26Z
2021-08-09T15:02:12Z,42.805,6.029,13.2991,4.60000,2470.366,2021-8-09T17:03:30Z
2021-08-09T15:05:15Z,42.805,6.029,13.2987,4.60002,2470.343,2021-8-09T17:06:33Z
2021-08-09T15:08:18Z,42.805,6.029,13.2984,4.60003,2470.38,2021-8-09T17:09:36Z
2021-08-09T15:11:21Z,42.805,6.029,13.2991,4.60003,2470.38,2021-8-09T17:12:39Z
2021-08-09T15:14:24Z,42.805,6.029,13.2988,4.60001,2470.404,2021-8-09T17:15:42Z